Miscellaneous Local Product
Issued by NWS Hastings, NE

Home | Current Version | Previous Version | Graphics & Text | Print | Product List | Glossary On
Versions: 1 2 3 4 5 6 7 8 9 10 11 12 13 14 15 16 17 18 19 20 21 22 23 24 25 26 27 28 29 30 31 32 33 34 35 36 37 38 39 40 41 42 43 44 45 46 47 48 49 50
000
AXUS43 KGID 070002
MISGRI

GID CWA HOURLY WEATHER ROUNDUP
NATIONAL WEATHER SERVICE HASTINGS NE
700 PM CDT WED MAY 06 2015

NOTE: "FAIR" INDICATES FEW OR NO CLOUDS BELOW 12,000 FEET WITH NO
SIGNIFICANT WEATHER AND/OR OBSTRUCTIONS TO VISIBILITY.

...SOUTH CENTRAL NEBRASKA...

CITY           SKY/WX    TMP DP  RH WIND       PRES   REMARKS
GRAND ISLAND   LGT RAIN  62  59  90 SE22G30   29.61S
HASTINGS       CLOUDY    59  56  89 SE17G24   29.63R
KEARNEY        CLOUDY    63  55  77 SE20      29.60
ORD            LGT RAIN  61  57  87 E8        29.60F
YORK           TSTM      64  63  94 SE21G31   29.69S
AURORA         TSTM      61  60  96 S20G32    29.63F
LEXINGTON      PTSUNNY   64  62  94 SE15      29.58F
HOLDREGE       PTSUNNY   64  59  82 SE14      29.60R
HEBRON         TSTM      60  57  91 W29G70    29.65F VSB 1

...NEBRASKA PANHANDLE...

CITY           SKY/WX    TMP DP  RH WIND       PRES   REMARKS
CHADRON        CLOUDY    62  52  69 NW14      29.60R
ALLIANCE       CLOUDY    58  52  80 S12       29.60S
SCOTTSBLUFF    LGT RAIN  59  54  83 NW10      29.64R
SIDNEY         PTSUNNY   58  53  84 NW6       29.64R

...WESTERN AND NORTH CENTRAL NEBRASKA...

CITY           SKY/WX    TMP DP  RH WIND       PRES   REMARKS
VALENTINE      CLOUDY    62  57  83 CALM      29.60F
AINSWORTH      PTSUNNY   69  56  62 S6        29.60S
ONEILL         RAIN      66  62  86 S17G25    29.64R
BROKEN BOW     PTSUNNY   63  57  81 SE14      29.59F
IMPERIAL       CLOUDY    61  54  77 S13       29.58R
NORTH PLATTE   CLOUDY    65  53  65 S9        29.58S
MCCOOK         CLOUDY    69  54  58 SW7       29.57F

...EASTERN NEBRASKA...

CITY           SKY/WX    TMP DP  RH WIND       PRES   REMARKS
NORFOLK        CLOUDY    67  61  81 SE22G32   29.67S
SO SIOUX CITY  MOSUNNY   70  60  70 SE22G31   29.73F
TEKAMAH        PTSUNNY   70  62  76 SE23G31   29.74F
COLUMBUS       CLOUDY    64  59  82 SE18G26   29.70F
ALBION         RAIN      63  61  93 SE20G26   29.66S
OMAHA EPPLEY   CLOUDY    71  61  70 S20       29.76F
MILLARD        PTSUNNY   71  62  71 SE20G28   29.75F
LINCOLN        LGT RAIN  68  62  81 SE16G29   29.72F
NEBRASKA CITY  CLOUDY    69  57  66 SE21G30   29.79F
BEATRICE       CLOUDY    68  62  80 SE16G29   29.73S
FALLS CITY     MOSUNNY   69  59  70 SE17G32   29.79S

...NORTHERN KANSAS...

CITY           SKY/WX    TMP DP  RH WIND       PRES   REMARKS
GOODLAND       CLOUDY    66  56  70 SW15      29.61F
HILL CITY      MOSUNNY   73  50  44 W10       29.58S
NORTON         MOCLDY    73  48  40 SW14      29.58S
PHILLIPSBURG   CLOUDY    75  61  60 NE9       29.59R
SMITH CENTER   CLOUDY    61  59  94 E8        29.59F
HAYS           PTSUNNY   79  55  44 S18G26    29.59R
RUSSELL        PTSUNNY   76  61  59 S24G33    29.58R
CONCORDIA      CLOUDY    69  64  84 SE35G49   29.61F THUNDER
SALINA         TSTM      70  63  78 SE32G40   29.64F
TOPEKA         CLOUDY    72  63  73 SE15      29.81S



USA.gov is the U.S. government's official web portal to all federal, state and local government web resources and services.